Location: Allen Lane School
(37.8198°N, 89.7382°W)
Time: 03:53:16
(UTC+00:00)

Meteor 1-14 Rocket - Pass Details

Date: 04 July 2022
Orbit: 833 x 919 km, 81.3° (Epoch: 14 August)

Event Time Altitude Azimuth Distance (km) Brightness Sun altitude
Exits shadow 09:22:52 - 179° (S) 2,979 6.6 -13.4°
Reaches altitude 10° 09:23:58 10° 178° (S) 2,562 6.3 -13.2°
Maximum altitude 09:29:45 70° 96° (E) 940 4.6 -12.4°
Drops below altitude 10° 09:35:27 10° 14° (NNE) 2,521 7.6 -11.5°
Sets 09:37:53 0° 12° (NNE) 3,449 8.3 -11.2°
